Hourly Data Report for September 25, 2017

All times are specified in Local Standard Time (LST). Add 1 hour to adjust for Daylight Saving Time where and when it is observed.

SUMMERSIDE
PRINCE EDWARD ISLAND

46°26'28.000" N
63°50'17.000" W
12.20 m
8300596
71702
WSD

Download Data

Hourly Data (September 2017)
Hourly Data Report for September 25, 2017
Temp Definition
°C
Dew Point Temp Definition
°C
Rel Hum Definition
%
Wind Dir Definition
10's deg

Wind Spd Definition
km/h
Visibility Definition
km
Stn Press Definition
kPa
Hmdx Definition


Wind Chill Definition


Weather Definition


TIME
00:00 14.4 13.4 94 34 11   101.60     LegendNANA
01:00 13.8 12.7 93 34 9   101.61     LegendNANA
02:00 12.9 12.2 95 33 3   101.60     LegendNANA
03:00 12.1 11.5 96 35 4   101.67     LegendNANA
04:00 11.6 10.9 96 1 6   101.67     LegendNANA
05:00 14.1 12.8 92 3 11   101.70     LegendNANA
06:00 14.0 12.4 90 5 12   101.76     LegendNANA
07:00 14.9 13.1 89 5 10   101.79     LegendNANA
08:00 15.5 13.2 86 7 11   101.83     LegendNANA
09:00 16.7 13.5 82 9 9   101.81     LegendNANA
10:00 17.4 12.0 71 4 3   101.85     LegendNANA
11:00 18.8 12.8 68 4 4   101.83     LegendNANA
12:00 19.6 9.9 53 20 14   101.80     LegendNANA
13:00 20.1 11.5 58 19 8   101.72     LegendNANA
14:00 20.8 12.5 59 20 12   101.65     LegendNANA
15:00 21.3 13.0 59 18 16   101.55     LegendNANA
16:00 21.4 13.8 62 18 17   101.48 25   LegendNANA
17:00 20.0 13.9 68 18 22   101.41     LegendNANA
18:00 18.0 13.8 76 19 19   101.43     LegendNANA
19:00 17.7 14.6 83 18 15   101.40     LegendNANA
20:00 18.9 16.1 84 19 21   101.36     LegendNANA
21:00 19.0 16.9 88 20 22   101.31     LegendNANA
22:00 18.5 16.4 88 21 23   101.27     LegendNANA
23:00 18.2 16.5 90 21 23   101.23     LegendNANA

Notes on Data Quality.

Legend

  • E = Estimated
  • M = Missing
  • NA = Not Available
  • ‡ = Partner data that is not subject to review by the National Climate Archives
Date modified: